Flag for Canada Weather past 2 weeks in Kelowna, British Columbia, Canada

Now
70 °F

Clear.


Feels Like: 70 °F
Forecast: 57 / 75 °F
Wind: 3 mph from North

Location: Kelowna Airport

Current Time: Aug 28, 2014 at 2:51:33 AM

Latest Report: Aug 28, 2014 at 2:00 AM


Visibility: 9 mi

Pressure: 29.90 "Hg

Humidity: 40%

Dew point: 45 °F

Location of KelownaLocation

Historic Weather in Kelowna — Graph

°F

Kelowna temperature yesterday

Maximum temperature yesterday: 91 °F (at 3:00 PM)
Minimum temperature yesterday: 57 °F (at 6:00 AM)
Average temperature yesterday: 76 °F

Past Weeks' High & Low Weather Summary

 TemperatureHumidityPressure
High91 °F (Aug 18, 4:00 PM)100% (Aug 15, 3:00 AM)30.20 "Hg (Aug 15, 3:00 AM)
Low46 °F (Aug 25, 5:00 AM)21% (Aug 27, 4:00 PM)29.64 "Hg (Aug 19, 3:53 PM)
Average68 °F64%29.95 "Hg
* Reported Aug 13 1:00 AM — Aug 28 1:00 AM, Kelowna, Weather by CustomWeather, © 2014

Note: Actual official high and low records may vary slightly from our data, if they occured in-between our weather recording intervals... More about our weather records

Advertising

Kelowna weather history for previous 24 hours

 ConditionsComfort  
Time TempWeatherWind HumidityBarometerVisibility
1:00 AM
Aug 28
73 °FPassing clouds.No wind33%29.90 "Hg9 mi
12:00 AM77 °FOvercast.13 mph30%29.89 "Hg9 mi
11:00 PM
Aug 27
77 °FPassing clouds.8 mph30%29.89 "Hg9 mi
10:00 PM75 °FOvercast.8 mph34%29.88 "Hg9 mi
9:00 PM77 °FPassing clouds.3 mph36%29.87 "Hg9 mi
8:00 PM79 °FScattered clouds.6 mph37%29.85 "Hg9 mi
7:00 PM86 °FSunny.6 mph25%29.83 "Hg9 mi
6:00 PM90 °FSunny.8 mph22%29.82 "Hg9 mi
5:00 PM90 °FSunny.8 mph24%29.83 "Hg9 mi
4:00 PM91 °FSunny.13 mph21%29.83 "Hg9 mi
3:00 PM91 °FSunny.12 mph23%29.85 "Hg9 mi
2:00 PM90 °FSunny.16 mph26%29.86 "Hg9 mi
1:00 PM90 °FSunny.15 mph24%29.89 "Hg9 mi
12:00 PM84 °FSunny.10 mph33%29.92 "Hg6 mi
11:00 AM81 °FSunny.6 mph39%29.95 "Hg9 mi
10:00 AM77 °FSunny.5 mph47%29.97 "Hg9 mi
9:00 AM72 °FSunny.2 mph57%29.98 "Hg9 mi
8:00 AM66 °FSunny.2 mph68%29.99 "Hg9 mi
7:00 AM57 °FClear.No wind82%29.99 "Hg9 mi
6:00 AM57 °FClear.6 mph82%29.98 "Hg9 mi
5:00 AM63 °FPassing clouds.No wind77%29.96 "Hg9 mi
4:00 AM63 °FPassing clouds.3 mph77%29.94 "Hg9 mi
3:00 AM66 °FPartly cloudy.3 mph68%29.93 "Hg9 mi
2:00 AM68 °FOvercast.No wind60%29.92 "Hg9 mi
Weather by CustomWeather, © 2014

See weather overviewHow to use our weather pages